Lid_Strength_Index
1 1 1 2 1 1 1 1 1 1 2 2 3 2 1 1 2 2 3 2 2 -2 -1 1 1 1 1 3 2 3 9 10 9 9 8 5 7 4 3 5 4 4 4 3 1
2 2 2 2 2 1 1 1 1 1 2 2 3 3 1 1 1 1 1 -2 -1 -3 1 2 2 2 3 3 3 5 8 8 6 6 7 6 6 5 6 6 6 4 3 2 2
2 2 2 2 2 2 1 1 1 1 1 2 2 2 1 0 2 2 -2 -3 -3 -2 1 1 1 2 4 3 4 5 8 6 5 5 5 6 6 5 6 8 6 7 5 3 2
2 2 3 3 2 2 2 2 2 1 1 2 2 1 0 1 7 1 -3 -2 -3 1 1 1 2 4 5 5 4 6 5 5 5 5 5 6 5 6 5 5 4 3 3 3 3
2 3 3 3 3 3 2 2 2 2 2 2 1 1 1 3 3 -1 -2 -1 -1 2 2 2 3 4 5 5 5 5 5 5 4 4 5 5 6 6 5 4 3 3 3 3 3
3 3 3 3 3 3 3 3 3 3 2 1 1 1 2 4 -0 -1 -0 -0 0 1 1 2 3 2 4 5 5 4 5 5 4 4 5 6 6 6 5 3 4 3 3 3 3
3 3 3 3 3 3 3 3 3 3 2 1 1 0 2 3 -0 -1 -0 0 0 0 2 1 1 3 3 5 4 4 6 5 4 4 5 4 7 7 4 4 4 4 3 3 3
3 3 3 3 3 3 3 4 3 2 1 1 0 0 3 0 -0 1 -0 0 -0 0 1 1 1 2 3 3 4 5 5 7 5 5 5 5 9 5 4 4 5 4 4 3 3
3 3 3 3 3 4 4 4 2 0 -0 -0 1 1 4 2 2 -0 -0 1 1 1 1 1 1 3 3 5 6 6 8 8 7 4 5 5 7 5 4 4 5 4 4 4 3
3 3 3 4 3 4 4 4 1 0 0 0 1 4 3 4 1 1 -0 0 2 2 2 3 3 5 5 6 9 8 8 7 7 6 5 6 6 4 4 4 5 4 4 4 4
3 4 4 4 4 4 4 0 2 3 2 3 4 4 4 1 1 1 0 1 2 3 5 4 6 7 6 5 6 6 7 7 6 5 6 6 6 5 4 4 5 4 4 4 4
3 4 4 4 4 4 3 2 2 1 4 3 3 4 2 2 4 2 0 3 4 6 4 5 7 5 5 5 6 6 7 7 6 5 5 6 6 5 4 4 4 4 4 4 4
3 4 4 4 5 4 2 1 -0 0 4 4 2 3 3 2 4 3 2 3 4 5 5 6 6 5 5 6 6 7 7 7 7 6 5 6 7 6 4 4 4 3 3 3 3
4 4 4 5 6 1 2 0 -1 -0 7 6 4 3 2 2 4 2 1 3 4 6 5 6 4 5 6 6 6 8 6 6 7 7 9 6 10 7 6 5 4 4 4 3 3
4 4 5 6 2 2 1 -1 -0 1 12 5 4 1 2 4 3 3 1 3 5 5 5 6 6 6 7 6 5 7 5 6 6 7 8 8 9 7 5 6 5 4 4 4 3
5 5 5 4 1 0 -1 -1 1 7 11 7 4 5 5 4 4 3 4 3 3 5 5 5 4 5 5 5 5 5 6 6 6 7 11 8 8 8 7 6 5 5 4 4 3
5 5 5 1 1 -1 -1 2 8 10 5 7 6 5 5 6 5 5 5 6 6 8 8 6 6 5 4 6 5 5 7 10 11 11 12 7 8 8 6 5 5 5 4 4 3
6 6 4 0 -1 -1 1 5 11 7 7 5 5 5 6 5 5 5 6 7 5 6 7 8 9 6 5 6 7 7 7 10 13 12 11 8 10 8 5 4 4 4 4 4 3
7 1 0 -0 -1 -0 4 8 8 7 6 6 6 7 7 6 6 6 6 6 6 5 8 8 8 5 5 5 5 7 8 6 9 8 10 9 7 6 5 5 4 4 4 4 4
1 1 1 -1 -1 1 6 9 7 5 5 5 7 6 8 7 7 6 7 6 6 5 4 6 9 6 5 5 5 6 5 9 8 12 13 10 10 8 7 6 5 5 4 4 4
1 3 1 -1 -0 4 7 6 6 4 4 6 7 7 6 7 6 7 7 6 5 5 5 5 7 7 6 7 7 7 7 7 7 8 11 12 10 6 6 5 5 5 4 4 4
2 5 0 -0 5 4 6 6 8 5 4 5 5 6 7 6 7 7 7 6 5 5 7 5 7 9 8 5 5 5 7 7 10 10 9 9 10 5 5 4 4 5 4 4 3
4 3 0 1 7 6 5 5 5 5 5 6 6 5 5 6 8 7 6 5 5 5 6 5 8 10 9 7 6 7 6 6 7 7 9 11 10 5 4 5 5 5 4 4 3
3 6 3 3 3 5 6 6 6 4 5 5 5 5 6 6 5 7 7 5 5 5 3 5 7 8 10 8 7 8 7 7 7 10 9 9 8 6 6 6 5 5 4 4 4
2 4 4 6 5 5 5 6 6 7 5 4 6 6 6 8 7 7 6 6 5 6 5 5 8 7 7 7 7 7 7 7 8 7 9 8 8 6 5 5 5 5 4 4 4
4 5 2 4 5 5 7 6 7 6 6 6 7 6 6 7 6 7 6 6 6 5 5 5 8 7 9 7 7 8 7 7 7 7 7 7 7 5 4 4 4 5 5 5 4
3 2 3 7 5 6 6 6 6 5 5 5 5 6 6 6 4 4 4 4 4 5 6 6 7 9 11 8 8 10 8 7 7 6 6 8 6 4 5 5 5 5 5 5 4